Date String (YYYY-MM-DD hh:mm:ss) UTC,Instrument flags,Ambient pressure (hPa),Sample flow (lpm),Bypass flow (lpm),Sample temperature (°C),Ambient temperature (°C),ASC tube jacket temperature (°C),LED temperature (°C),Box temperature (°C),Sample RH (%),Span deviation,Mass concentration (μg/m³),Mass concentration (μg/m³),Mass concentration (μg/m³)
DateTimeUTC,F1_M11,P_M11,Q1_M11,Q2_M11,T1_M11,T2_M11,T3_M11,T4_M11,T5_M11,U1_M11,ZSPAN_M11,X0_M11,X2_M11,X1_M11
2023-01-11 10:00:00,,0816.2,5.00,0.00,22.4,21.0,00.0,31.3,24.2,17.3,-000.8,0008.26,0005.59,0005.49
2023-01-11 10:01:00,,0816.1,4.99,0.00,22.4,21.0,00.0,31.3,24.1,17.3,-000.3,0007.92,0005.61,0005.51
2023-01-11 10:02:00,,0816.1,5.00,0.00,22.4,21.0,00.0,31.3,24.1,17.4,-000.6,0007.98,0005.65,0005.54
2023-01-11 10:03:00,,0816.1,4.98,0.00,22.4,21.0,00.0,31.3,24.1,17.4,-001.2,0008.07,0005.68,0005.55
2023-01-11 10:04:00,,0816.1,5.00,0.00,22.4,20.9,00.0,31.3,24.1,17.4,-001.3,0008.06,0005.69,0005.57
2023-01-11 10:05:00,,0816.1,5.00,0.00,22.3,20.9,00.0,31.3,24.1,17.4,-001.1,0008.12,0005.71,0005.59
2023-01-11 10:06:00,,0816.1,5.00,0.00,22.3,20.9,00.0,31.3,24.1,17.5,-001.2,0008.17,0005.73,0005.60
2023-01-11 10:07:00,,0816.1,5.00,0.00,22.3,20.9,00.0,31.3,24.1,17.5,-001.1,0008.15,0005.73,0005.61
2023-01-11 10:08:00,,0816.1,5.00,0.00,22.3,20.9,00.0,31.2,24.1,17.4,-001.5,0008.13,0005.73,0005.62
2023-01-11 10:09:00,,0816.0,5.00,0.00,22.3,20.9,00.0,31.2,24.1,17.4,-001.3,0008.14,0005.74,0005.62
2023-01-11 10:10:00,,0816.0,5.00,0.00,22.3,20.9,00.0,31.2,24.1,17.4,-000.8,0008.26,0005.78,0005.64
2023-01-11 10:11:00,,0816.0,5.01,0.00,22.3,20.9,00.0,31.2,24.1,17.5,-001.1,0008.32,0005.81,0005.65
2023-01-11 10:12:00,,0816.0,5.01,0.00,22.3,20.9,00.0,31.2,24.1,17.5,-001.2,0008.36,0005.82,0005.66
2023-01-11 10:13:00,,0816.0,5.00,0.00,22.3,20.9,00.0,31.2,24.1,17.5,-001.2,0008.37,0005.84,0005.67
2023-01-11 10:14:00,,0816.0,5.01,0.00,22.3,21.0,00.0,31.2,24.1,17.5,-001.3,0008.39,0005.84,0005.68
2023-01-11 10:15:00,,0815.9,5.00,0.00,22.4,21.9,00.0,31.2,24.3,17.4,-001.6,0008.43,0005.87,0005.69
2023-01-11 10:16:00,,0815.9,5.00,0.00,22.5,22.6,00.0,31.2,24.5,17.4,-001.5,0008.42,0005.88,0005.70
2023-01-11 10:17:00,,0815.9,4.99,0.00,22.6,22.5,00.0,31.3,24.6,17.3,-001.3,0008.37,0005.86,0005.69
2023-01-11 10:18:00,,0815.9,4.99,0.00,22.6,22.2,00.0,31.3,24.5,17.3,-001.2,0008.69,0005.88,0005.70
2023-01-11 10:19:00,,0815.8,5.00,0.00,22.6,22.0,00.0,31.3,24.4,17.3,-000.8,0008.89,0005.92,0005.71
2023-01-11 10:20:00,,0815.8,5.01,0.00,22.6,21.8,00.0,31.3,24.4,17.3,-001.3,0008.93,0005.94,0005.72
2023-01-11 10:21:00,,0815.8,5.00,0.00,22.6,21.6,00.0,31.3,24.4,17.3,-001.6,0010.11,0005.93,0005.72
2023-01-11 10:22:00,,0815.8,5.00,0.00,22.6,21.5,00.0,31.4,24.4,17.3,-001.6,0010.37,0005.94,0005.72
2023-01-11 10:23:00,,0815.8,4.98,0.00,22.6,21.4,00.0,31.4,24.4,17.3,-001.9,0010.35,0005.94,0005.72
2023-01-11 10:24:00,,0815.8,5.01,0.00,22.6,21.4,00.0,31.4,24.4,17.2,-002.0,0010.31,0005.92,0005.72
2023-01-11 10:25:00,,0815.9,5.00,0.00,22.6,21.3,00.0,31.4,24.4,17.2,-001.9,0010.24,0005.91,0005.72
2023-01-11 10:26:00,,0815.9,5.00,0.00,22.6,21.3,00.0,31.4,24.3,17.2,-001.6,0010.15,0005.88,0005.72
2023-01-11 10:27:00,,0815.9,5.01,0.00,22.6,21.3,00.0,31.4,24.3,17.2,-001.8,0010.09,0005.86,0005.72
2023-01-11 10:28:00,,0816.0,4.96,0.00,22.6,21.2,00.0,31.4,24.3,17.2,-002.4,0010.12,0005.89,0005.75
2023-01-11 10:29:00,,0815.9,4.99,0.00,22.6,21.2,00.0,31.4,24.3,17.2,-002.7,0009.87,0005.90,0005.76
2023-01-11 10:30:00,,0815.9,5.03,0.00,22.6,21.2,00.0,31.4,24.3,17.2,-002.7,0009.69,0005.88,0005.77
2023-01-11 10:31:00,,0815.9,4.99,0.00,22.6,21.2,00.0,31.4,24.3,17.2,-002.3,0009.67,0005.88,0005.78
2023-01-11 10:32:00,,0815.9,5.00,0.00,22.6,21.2,00.0,31.4,24.3,17.2,-002.3,0008.40,0005.89,0005.78
2023-01-11 10:33:00,,0815.8,5.00,0.00,22.6,21.2,00.0,31.4,24.3,17.2,-002.2,0008.17,0005.88,0005.79
2023-01-11 10:34:00,,0815.8,4.99,0.00,22.6,21.1,00.0,31.4,24.3,17.2,-002.2,0008.18,0005.89,0005.79
2023-01-11 10:35:00,,0815.8,5.01,0.00,22.6,21.1,00.0,31.4,24.3,17.2,-002.2,0008.31,0005.89,0005.79
2023-01-11 10:36:00,,0815.8,4.99,0.00,22.6,21.1,00.0,31.4,24.3,17.2,-002.5,0008.41,0005.87,0005.76
2023-01-11 10:37:00,,0815.8,5.01,0.00,22.6,21.1,00.0,31.4,24.3,17.2,-002.6,0008.46,0005.86,0005.74
2023-01-11 10:38:00,,0815.8,5.02,0.00,22.6,21.1,00.0,31.4,24.3,17.3,-002.9,0008.45,0005.84,0005.71
2023-01-11 10:39:00,,0815.9,5.00,0.00,22.6,21.1,00.0,31.4,24.3,17.3,-002.3,0008.38,0005.79,0005.68
2023-01-11 10:40:00,,0815.8,5.00,0.00,22.5,21.1,00.0,31.4,24.3,17.3,-002.2,0008.51,0005.77,0005.65
2023-01-11 10:41:00,,0815.8,4.99,0.00,22.5,21.1,00.0,31.4,24.3,17.4,-002.4,0009.33,0005.77,0005.62
2023-01-11 10:42:00,,0815.8,5.00,0.00,22.5,21.1,00.0,31.4,24.3,17.4,-002.8,0009.61,0005.74,0005.59
2023-01-11 10:43:00,,0815.8,4.99,0.00,22.5,21.0,00.0,31.4,24.3,17.4,-003.0,0009.58,0005.70,0005.56
2023-01-11 10:44:00,,0815.7,4.99,0.00,22.5,21.0,00.0,31.4,24.3,17.4,-003.1,0009.52,0005.67,0005.53
2023-01-11 10:45:00,,0815.7,4.98,0.00,22.5,21.0,00.0,31.4,24.3,17.4,-002.9,0009.47,0005.64,0005.51
2023-01-11 10:46:00,,0815.7,4.99,0.00,22.5,21.0,00.0,31.4,24.2,17.4,-002.7,0009.36,0005.62,0005.50
2023-01-11 10:47:00,,0815.7,4.98,0.00,22.5,21.0,00.0,31.4,24.2,17.4,-002.4,0009.22,0005.62,0005.51
2023-01-11 10:48:00,,0815.6,4.97,0.00,22.5,21.0,00.0,31.3,24.2,17.5,-002.5,0009.20,0005.64,0005.52
2023-01-11 10:49:00,,0815.8,5.00,0.00,22.5,21.0,00.0,31.3,24.2,17.5,-002.4,0009.20,0005.64,0005.53
2023-01-11 10:50:00,,0816.1,5.00,0.00,22.5,21.1,00.0,31.3,24.2,17.5,-002.2,0009.22,0005.65,0005.53
2023-01-11 10:51:00,,0816.1,5.01,0.00,22.5,21.1,00.0,31.3,24.2,17.5,-002.2,0009.27,0005.66,0005.52
2023-01-11 10:52:00,,0816.1,4.98,0.00,22.5,21.1,00.0,31.3,24.2,17.5,-002.3,0008.66,0005.64,0005.51
2023-01-11 10:53:00,,0816.0,4.97,0.00,22.5,21.1,00.0,31.3,24.2,17.5,-002.2,0008.45,0005.65,0005.51
2023-01-11 10:54:00,,0815.9,5.01,0.00,22.5,21.1,00.0,31.3,24.2,17.5,-002.0,0008.47,0005.64,0005.49
2023-01-11 10:55:00,,0815.9,5.03,0.00,22.4,21.0,00.0,31.3,24.2,17.5,-001.8,0008.51,0005.64,0005.47
2023-01-11 10:56:00,,0815.9,4.97,0.00,22.4,21.0,00.0,31.3,24.2,17.5,-002.0,0008.60,0005.65,0005.47
2023-01-11 10:57:00,,0815.9,4.98,0.00,22.4,21.0,00.0,31.3,24.2,17.5,-002.2,0008.65,0005.66,0005.45
2023-01-11 10:58:00,,0816.0,5.00,0.00,22.4,21.0,00.0,31.3,24.2,17.5,-002.6,0008.67,0005.65,0005.44
2023-01-11 10:59:00,,0815.9,5.01,0.00,22.4,21.0,00.0,31.3,24.2,17.5,-002.7,0008.65,0005.64,0005.44
